Regional Weather Roundup
Issued by NWS

Home | Current Version | Previous Version | Text Only | Print | Product List | Glossary Off
Versions: 1 2 3 4 5 6 7 8 9 10 11 12 13 14 15 16 17 18 19 20 21 22 23 24 25 26 27 28 29 30 31 32 33 34 35 36 37 38 39 40 41 42 43 44 45 46 47 48 49 50

000
ASUS43 KLOT 040803
RWRIL

ILLINOIS REGIONAL WEATHER ROUNDUP
NATIONAL WEATHER SERVICE CHICAGO/ROMEOVILLE IL
300 AM CDT WED MAY 04 2016

NOTE: "FAIR" INDICATES FEW OR NO CLOUDS BELOW 12,000 FEET WITH NO
SIGNIFICANT WEATHER AND/OR OBSTRUCTIONS TO VISIBILITY.

* THESE STATIONS ARE NOT UNDER NWS QUALITY CONTROL. THEY ALSO MAY NOT
  REPORT WEATHER SUCH AS PRECIPITATION OR FOG.

ILZ001-002-007-009-015-016-024-040900-
NORTHWEST ILLINOIS

CITY           SKY/WX    TMP DP  RH WIND       PRES   REMARKS
MOLINE         CLEAR     49  46  90 NW3       29.69R
STERLING*      PTCLDY    46  46 100 W6        29.69R
$$

ILZ003-004-008-010-011-017-018-040900-
NORTH CENTRAL ILLINOIS

CITY           SKY/WX    TMP DP  RH WIND       PRES   REMARKS
ROCKFORD       CLOUDY    47  44  90 NW7       29.68R
FREEPORT*      CLEAR     44  43  96 NW6       29.70R
ROCHELLE*      CLOUDY    45  44  96 W6        29.67S
DE KALB*       CLOUDY    47  45  91 N5        29.65R
$$

ILZ005-006-012>014-019>023-040900-
NORTHEAST ILLINOIS

CITY           SKY/WX    TMP DP  RH WIND       PRES   REMARKS
CHICAGO-OHARE  RAIN      50  47  89 N7        29.64F FOG
CHICAGO-MIDWAY LGT RAIN  51  47  86 N8        29.64S FOG
AURORA         LGT RAIN  50  46  86 E10       29.60F FOG
LANSING*       RAIN      51  48  91 S5        29.63F
WAUKEGAN       LGT RAIN  49  48  97 NW3       29.63F FOG
DUPAGE AIRPORT RAIN      49  45  86 VRB3      29.61F FOG
WHEELING       RAIN      50  47  89 CALM      29.64F FOG
NORTHERLY ISL    N/A     52  47  83 NW6         N/A
NORTHERLY ISL    N/A     52  47  83 NW6         N/A
$$

LMZ740>746-040900-
SOUTHERN LAKE MICHIGAN

STATION/POSITION SKY/WX   TEMP    WIND        PRES    VSBY  WAVE
                          AIR SEA DIR/SP/G                  HT/PER
                          (F)     (DEG/KT/KT) (MB)    (MI)  (FT/S)
SOUTHERN BUOY              45 41  290/ 10/ 14 1002.7          1/ 3
HARRISON CRIB              54     300/ 24/ 26   N/A
BURNHAM HARBOR             55     290/ 11/ 13   N/A
CALUMET HARBOR             54     220/ 12/ 18 1002.8F
BURNS HARBOR               58     220/ 15/ 25 1003.7F
MICHIGAN CITY              58     190/ 15/ 19   N/A
ST. JOSEPH                 54 49                N/A           2/ 3
$$

ILZ025>027-034>036-040-047-049-050-058-095>099-040900-
WEST-CENTRAL ILLINOIS

CITY           SKY/WX    TMP DP  RH WIND       PRES   REMARKS
QUINCY         LGT RAIN  55  44  66 SW14G23   29.70F
MACOMB*        CLOUDY    54  47  78 W12       29.70F
PITTSFIELD*    CLOUDY    57  44  61 SW10      29.73F
$$

ILZ028>032-037-038-041>044-048-051>054-059>061-040900-
CENTRAL ILLINOIS

CITY           SKY/WX    TMP DP  RH WIND       PRES   REMARKS
BLOOMINGTON    RAIN      53  48  83 W14G20    29.71R
DECATUR        CLOUDY    56  43  61 SW16      29.70F
PEORIA         LGT RAIN  50  47  89 NE8       29.72S
LINCOLN*       CLOUDY    57  46  67 SW8       29.67F
SPRINGFIELD    CLOUDY    57  44  62 SW10      29.69F
TAYLORVILLE    NOT AVBL
$$

ILZ033-039-045-046-055>057-062-063-040900-
EAST-CENTRAL ILLINOIS

CITY           SKY/WX    TMP DP  RH WIND       PRES   REMARKS
CHAMPAIGN      LGT RAIN  54  45  71 SW15      29.69F
MATTOON        CLOUDY    53  43  68 SW10      29.72F
$$

ILZ079-100>102-040900-
SOUTHWEST ILLINOIS

CITY           SKY/WX    TMP DP  RH WIND       PRES   REMARKS
ALTON          CLOUDY    53  44  69 SW9       29.78F
BELLEVILLE     CLEAR     50  46  84 SW8       29.79F
CAHOKIA*       MOCLDY    54  43  66 SW7       29.80F
SPARTA*        CLEAR     51  45  80 SW8       29.83F
$$

ILZ064>066-069>071-074>076-080>082-084>086-088>090-092>094-040900-
SOUTH-CENTRAL ILLINOIS

CITY           SKY/WX    TMP DP  RH WIND       PRES   REMARKS
CARBONDALE     PTCLDY    49  44  83 SW8       29.84F
EFFINGHAM*     MOCLDY    52  46  79 S7        29.78F
MT. VERNON     CLEAR     46  41  81 S3        29.82F
SALEM*         PTCLDY    53  45  75 S8        29.79F
$$

ILZ067-068-072-073-078-083-087-091-040900-
SOUTHEAST ILLINOIS

CITY           SKY/WX    TMP DP  RH WIND       PRES   REMARKS
LAWRENCEVILLE  MOCLDY    51  45  79 SW7       29.79F
FLORA*         PTCLDY    52  45  77 SW8       29.80F
HARRISBURG*    PTCLDY    48  45  90 S3        29.85F
ROBINSON*      MOCLDY    51  44  77 SW10      29.78F
$$

ABBREVIATIONS USED IN REMARKS
   TC - TEMPERATURE IN CELSIUS
  WCI - WIND CHILL INDEX
   HX - HEAT INDEX
  VSB - VISIBILITY
$$





USA.gov is the U.S. government's official web portal to all federal, state and local government web resources and services.